Regional Weather Roundup
Issued by NWS

Home | Current Version | Previous Version | Graphics & Text | Print | Product List | Glossary On
Versions: 1 2 3 4 5 6 7 8 9 10 11 12 13 14 15 16 17 18 19 20 21 22 23 24 25 26 27 28 29 30 31 32 33 34 35 36 37 38 39 40 41 42 43 44 45 46 47 48 49 50
000
ASUS45 KBOU 230807
RWRCO

WEATHER ROUNDUP FOR COLORADO
NATIONAL WEATHER SERVICE DENVER/BOULDER CO
200 AM MDT MON MAY 23 2016

NOTE: "FAIR" INDICATES FEW OR NO CLOUDS BELOW 12000 FEET WITH NO
SIGNIFICANT WEATHER AND/OR OBSTRUCTIONS TO VISIBILITY.

COZ001>005-013-030-031-230900-
...NORTHWEST COLORADO...

CITY           SKY/WX    TMP DP  RH WIND       PRES   REMARKS
CRAIG          FAIR      32  27  81 SW3       30.01F
HAYDEN         FAIR      37  27  65 CALM      30.01F
MEEKER         FAIR      37  30  75 CALM      30.01S
MOUNT WERNER   NOT AVBL
STEAMBOAT SPGS FAIR      33  31  92 CALM      30.02S
WALDEN         FAIR      30  27  86 E6        30.05S WCI  24
$$

COZ006>008-011-230900-
...WEST CENTRAL VALLEYS...

CITY           SKY/WX    TMP DP  RH WIND       PRES   REMARKS
GRAND JUNCTION FAIR      44  26  49 NE6       29.92R
MONTROSE       FAIR      47  26  44 SE9       29.96S
EAGLE          FAIR      39  27  60 E6        30.02R
RIFLE          FAIR      42  28  57 VRB3      29.97R
DELTA          FAIR      49  26  40 CALM      29.93S
NUCLA          FAIR      45  27  49 E9        29.98S
$$

COZ017>023-064>068-230900-
...SOUTHWEST COLORADO...

CITY           SKY/WX    TMP DP  RH WIND       PRES   REMARKS
DURANGO        FAIR      36  26  67 N5        29.99R
CORTEZ         FAIR      40  28  62 E3        29.95F
PAGOSA SPRINGS FAIR      39  25  56 CALM      30.04S
TELLURIDE      FAIR      39  26  58 SE5       30.09F
WOLF CREEK PAS FAIR      30  18  59 SW18G25   30.21S WCI  18
$$

COZ009-010-012-014-032>034-037-058>063-230900-
...CENTRAL COLORADO...

CITY           SKY/WX    TMP DP  RH WIND       PRES   REMARKS
ASPEN          FAIR      34  27  75 SW6       30.01F WCI  29
BUENA VISTA    FAIR      44  22  41 CALM      30.02R
COPPER MTN     NOT AVBL
BERTHOUD PASS  FAIR      25  16  68 W6G16     30.17S WCI  18
COTTONWOOD PAS FAIR      45  18  33 SW7       30.09S
GUNNISON       FAIR      39  25  56 N5        30.05S
KREMMLING      FAIR      36  28  75 CALM      30.04S
LEADVILLE      FAIR      29  20  69 NE5       30.07F WCI  24
MONARCH PASS   FAIR      30  19  64 SW15      30.28R WCI  19
SALIDA         FAIR      48  23  38 SW5       30.08R
SUNLIGHT       FAIR      32  21  64 W5        30.15S WCI  27
WILKERSON PASS FAIR      34  19  55 SW5       30.18F WCI  30
$$

COZ069>075-230900-
...SAN LUIS VALLEY/SANGRE DE CRISTO MOUNTAINS...

CITY           SKY/WX    TMP DP  RH WIND       PRES   REMARKS
ALAMOSA        FAIR      43  27  53 S7        30.00F
LA VETA PASS   FAIR      39  21  48 S5        30.14S
SAGUACHE       FAIR      37  27  65 N8        30.03S
$$

COZ035-036-038>040-230900-
...NORTHERN COLORADO FRONT RANGE...

CITY           SKY/WX    TMP DP  RH WIND       PRES   REMARKS
DENVER INTL AP TSTM      48  43  82 SE10      29.92R
DMNS CITY PARK   N/A     51  42  69 E12       29.92F
AURORA         TSTM      49  42  78 SE12      29.94R
FRONT RANGE AP NOT AVBL
ERIE MUNI ARPT FAIR      51  41  68 SE7       29.92R
BOULDER MUN AP FAIR      54  43  66 SE7       29.91S
CENTENNIAL     MOCLDY    50  40  68 SE9       29.94S
BROOMFIELD     FAIR      52  41  66 SE7       29.93S
FORT COLLINS   FAIR      48  39  71 S8        29.91S
LONGMONT       FAIR      52  43  72 CALM      29.93R
$$

COZ041-046-047-076>085-087-088-230900-
...PIKES PEAK/PALMER DIVIDE AND SOUTHERN FOOTHILLS...

CITY           SKY/WX    TMP DP  RH WIND       PRES   REMARKS
COLO. SPRINGS  FAIR      50  38  63 N14       29.94F
A. F. ACADEMY  FAIR      45  39  81 N8        29.96R
SCHRIEVER AFB  NOT AVBL
ELLICOTT       FAIR     N/A N/A N/A NE23G35   29.90F
FALCON         FAIR      45  38  75 NE12      29.98S
FORT CARSON    FAIR      50  39  67 N10       29.91S
LIMON          FAIR      45  38  76 N10       29.92S
MONUMENT HILL  FAIR      39  37  93 SE8       30.00S
TRINIDAD       FAIR      53  29  39 W10       29.91R
$$

COZ042>045-048>051-090-091-230900-
...NORTHEAST COLORADO...

CITY           SKY/WX    TMP DP  RH WIND       PRES   REMARKS
GREELEY ARPT   FAIR      52  37  58 W9        29.89S
AKRON          CLOUDY    51  37  58 NE10      29.90S
BURLINGTON     CLOUDY    59  47  64 N20G28    29.85R
WRAY           CLOUDY    57  43  58 CALM      29.88R
STERLING       CLOUDY    54  36  50 N6        29.88S
HOLYOKE        MOCLDY    59  46  63 N3        29.87F
FORT MORGAN    MOCLDY    48  38  67 NE5       29.91S
$$

COZ086-089-092>099-230900-
...SOUTHEAST COLORADO...

CITY           SKY/WX    TMP DP  RH WIND       PRES   REMARKS
PUEBLO         FAIR      56  41  57 W6        29.88R
LA JUNTA       FAIR      55  44  66 N10       29.80F
LAMAR          FAIR      61  55  81 S23G35    29.73F
SPRINGFIELD      N/A     60  57  89 S10       29.84F
$$



USA.gov is the U.S. government's official web portal to all federal, state and local government web resources and services.